| time (UTC) | temp F | wind direction | speed MPH | gust MPH | rain 1hr in | rain 24hr in | rain mn in | humidity % | barometer mb |
| 20260505153039 | 40 | 101 | 13.0 | 20.0 | 0.00 | 0.00 | 0.00 | 50 | 1014.9 |
| 20260505152525 | 40 | 77 | 9.0 | 20.0 | 0.00 | 0.00 | 0.00 | 50 | 1014.8 |
| 20260505152028 | 40 | 123 | 13.0 | 20.0 | 0.00 | 0.00 | 0.00 | 50 | 1014.9 |
| 20260505151541 | 40 | 86 | 10.0 | 21.0 | 0.00 | 0.00 | 0.00 | 53 | 1015.0 |
| 20260505151028 | 39 | 103 | 11.0 | 21.0 | 0.00 | 0.00 | 0.00 | 56 | 1015.0 |
| 20260505150528 | 39 | 87 | 10.0 | 20.0 | 0.00 | 0.00 | 0.00 | 54 | 1015.1 |
| 20260505140528 | 38 | 72 | 6.0 | 13.0 | 0.00 | 0.00 | 0.00 | 65 | 1015.1 |
| 20260505125027 | 32 | 66 | 4.0 | 12.0 | 0.00 | 0.00 | 0.00 | 77 | 1014.6 |
| 20260505124545 | 32 | 104 | 4.0 | 12.0 | 0.00 | 0.00 | 0.00 | 77 | 1014.5 |
| 20260505124026 | 32 | 55 | 5.0 | 10.0 | 0.00 | 0.00 | 0.00 | 77 | 1014.4 |
| 20260505123525 | 32 | 51 | 6.0 | 10.0 | 0.00 | 0.00 | 0.00 | 77 | 1014.5 |
| 20260505123059 | 32 | 37 | 5.0 | 12.0 | 0.00 | 0.00 | 0.00 | 78 | 1014.6 |
| 20260505122525 | 32 | 88 | 7.0 | 13.0 | 0.00 | 0.00 | 0.00 | 78 | 1014.5 |
| 20260505122025 | 31 | 42 | 7.0 | 13.0 | 0.00 | 0.00 | 0.00 | 78 | 1014.5 |
| 20260505121539 | 31 | 69 | 7.0 | 13.0 | 0.00 | 0.00 | 0.00 | 79 | 1014.4 |
| 20260505121029 | 31 | 55 | 5.0 | 13.0 | 0.00 | 0.00 | 0.00 | 79 | 1014.4 |
| 20260505120525 | 31 | 43 | 7.0 | 13.0 | 0.00 | 0.00 | 0.00 | 79 | 1014.4 |
| 20260505120039 | 30 | 34 | 4.0 | 10.0 | 0.00 | 0.00 | 0.00 | 79 | 1014.4 |
| 20260505115525 | 30 | 46 | 5.0 | 10.0 | 0.00 | 0.00 | 0.00 | 78 | 1014.4 |
| 20260505115025 | 31 | 59 | 4.0 | 10.0 | 0.00 | 0.00 | 0.00 | 78 | 1014.3 |
| 20260505114546 | 31 | 55 | 6.0 | 11.0 | 0.00 | 0.00 | 0.00 | 78 | 1014.3 |
| 20260505114028 | 30 | 62 | 7.0 | 12.0 | 0.00 | 0.00 | 0.00 | 78 | 1014.3 |
| 20260505113526 | 30 | 45 | 7.0 | 12.0 | 0.00 | 0.00 | 0.00 | 78 | 1014.2 |
| 20260505113049 | 30 | 41 | 6.0 | 10.0 | 0.00 | 0.00 | 0.00 | 78 | 1014.3 |
| 20260505112525 | 30 | 63 | 6.0 | 10.0 | 0.00 | 0.00 | 0.00 | 79 | 1014.2 |
| 20260505112028 | 30 | 53 | 6.0 | 11.0 | 0.00 | 0.00 | 0.00 | 78 | 1014.4 |
| 20260505111540 | 30 | 86 | 6.0 | 11.0 | 0.00 | 0.00 | 0.00 | 78 | 1014.4 |
| 20260505111028 | 30 | 53 | 6.0 | 10.0 | 0.00 | 0.00 | 0.00 | 78 | 1014.4 |
| 20260505110530 | 30 | 63 | 4.0 | 9.0 | 0.00 | 0.00 | 0.00 | 79 | 1014.4 |
| 20260505102026 | 31 | 57 | 3.0 | 8.0 | 0.00 | 0.00 | 0.00 | 76 | 1014.6 |
| 20260505101558 | 32 | 57 | 3.0 | 8.0 | 0.00 | 0.00 | 0.00 | 76 | 1014.5 |
| 20260505101025 | 32 | 50 | 4.0 | 8.0 | 0.00 | 0.00 | 0.00 | 75 | 1014.4 |
| 20260505100528 | 32 | 53 | 3.0 | 7.0 | 0.00 | 0.00 | 0.00 | 74 | 1014.4 |
| 20260505100058 | 33 | 123 | 1.0 | 7.0 | 0.00 | 0.00 | 0.00 | 73 | 1014.0 |
| 20260505095531 | 33 | 135 | 4.0 | 7.0 | 0.00 | 0.00 | 0.00 | 73 | 1014.0 |
| 20260505095027 | 34 | 104 | 3.0 | 8.0 | 0.00 | 0.00 | 0.00 | 72 | 1013.8 |
| 20260505094539 | 34 | 103 | 3.0 | 8.0 | 0.00 | 0.00 | 0.00 | 72 | 1013.8 |
| 20260505094026 | 34 | 96 | 4.0 | 8.0 | 0.00 | 0.00 | 0.00 | 71 | 1013.7 |
| 20260505093527 | 35 | 103 | 4.0 | 11.0 | 0.00 | 0.00 | 0.00 | 71 | 1013.7 |
| 20260505093059 | 35 | 90 | 4.0 | 11.0 | 0.00 | 0.00 | 0.00 | 70 | 1013.7 |
| 20260505092527 | 36 | 140 | 5.0 | 11.0 | 0.00 | 0.00 | 0.00 | 69 | 1013.7 |
| 20260505092027 | 36 | 125 | 4.0 | 8.0 | 0.00 | 0.00 | 0.00 | 69 | 1013.5 |
| 20260505091544 | 36 | 145 | 3.0 | 7.0 | 0.00 | 0.00 | 0.00 | 69 | 1013.5 |
| 20260505091027 | 36 | 104 | 3.0 | 7.0 | 0.00 | 0.00 | 0.00 | 71 | 1013.5 |
| 20260505090526 | 37 | 86 | 3.0 | 9.0 | 0.00 | 0.00 | 0.00 | 70 | 1013.4 |
| 20260505090037 | 37 | 92 | 4.0 | 9.0 | 0.00 | 0.00 | 0.00 | 69 | 1013.4 |
| 20260505085526 | 37 | 105 | 3.0 | 7.0 | 0.00 | 0.00 | 0.00 | 68 | 1013.3 |
| 20260505085026 | 37 | 98 | 3.0 | 7.0 | 0.00 | 0.00 | 0.00 | 66 | 1013.3 |
| 20260505084541 | 38 | 108 | 3.0 | 8.0 | 0.00 | 0.00 | 0.00 | 65 | 1013.3 |
| 20260505084028 | 38 | 100 | 4.0 | 8.0 | 0.00 | 0.00 | 0.00 | 63 | 1013.3 |
| 20260505083528 | 39 | 98 | 3.0 | 10.0 | 0.00 | 0.00 | 0.00 | 62 | 1013.3 |
| 20260505083040 | 39 | 83 | 5.0 | 10.0 | 0.00 | 0.00 | 0.00 | 62 | 1013.2 |
| 20260505082525 | 39 | 61 | 6.0 | 10.0 | 0.00 | 0.00 | 0.00 | 62 | 1013.2 |
| 20260505082025 | 39 | 60 | 4.0 | 9.0 | 0.00 | 0.00 | 0.00 | 64 | 1013.2 |
| 20260505081541 | 38 | 62 | 3.0 | 7.0 | 0.00 | 0.00 | 0.00 | 66 | 1013.2 |
| 20260505081028 | 38 | 73 | 2.0 | 6.0 | 0.00 | 0.00 | 0.00 | 68 | 1013.4 |
| 20260505080526 | 39 | 55 | 3.0 | 8.0 | 0.00 | 0.00 | 0.00 | 68 | 1013.3 |
| 20260505080048 | 39 | 36 | 3.0 | 8.0 | 0.00 | 0.00 | 0.00 | 66 | 1013.3 |
| 20260505075526 | 40 | 45 | 4.0 | 11.0 | 0.00 | 0.00 | 0.00 | 65 | 1013.4 |
| 20260505075026 | 40 | 51 | 4.0 | 11.0 | 0.00 | 0.00 | 0.00 | 65 | 1013.3 |
| 20260505074547 | 40 | 54 | 6.0 | 10.0 | 0.00 | 0.00 | 0.00 | 64 | 1013.3 |
| 20260505074026 | 40 | 50 | 4.0 | 8.0 | 0.00 | 0.00 | 0.00 | 67 | 1013.3 |
| 20260505073526 | 40 | 45 | 3.0 | 8.0 | 0.00 | 0.00 | 0.00 | 67 | 1013.3 |
| 20260505073048 | 40 | 57 | 4.0 | 8.0 | 0.00 | 0.00 | 0.00 | 68 | 1013.4 |
| 20260505072525 | 40 | 51 | 3.0 | 6.0 | 0.00 | 0.00 | 0.00 | 70 | 1013.5 |
| 20260505072026 | 40 | 76 | 2.0 | 5.0 | 0.00 | 0.00 | 0.00 | 70 | 1013.5 |
| 20260505071551 | 40 | 69 | 0.0 | 3.0 | 0.00 | 0.00 | 0.00 | 71 | 1013.5 |
| 20260505071028 | 40 | 0 | 0.0 | 3.0 | 0.00 | 0.00 | 0.00 | 72 | 1013.7 |
| 20260505070526 | 40 | 0 | 0.0 | 2.0 | 0.00 | 0.00 | 0.00 | 72 | 1013.7 |
| 20260505070042 | 40 | 61 | 1.0 | 2.0 | 0.00 | 0.00 | 0.00 | 72 | 1013.8 |
| 20260505065526 | 40 | 61 | 1.0 | 4.0 | 0.00 | 0.00 | 0.00 | 72 | 1013.8 |
| 20260505065024 | 40 | 61 | 1.0 | 4.0 | 0.00 | 0.00 | 0.00 | 71 | 1013.7 |
| 20260505064538 | 40 | 61 | 2.0 | 5.0 | 0.00 | 0.00 | 0.00 | 71 | 1013.7 |
| 20260505064027 | 40 | 61 | 1.0 | 5.0 | 0.00 | 0.00 | 0.00 | 71 | 1013.7 |
| 20260505063530 | 40 | 61 | 3.0 | 6.0 | 0.00 | 0.00 | 0.00 | 71 | 1013.7 |
| 20260505063046 | 41 | 95 | 2.0 | 8.0 | 0.00 | 0.00 | 0.00 | 70 | 1013.8 |
| 20260505062528 | 41 | 84 | 2.0 | 11.0 | 0.00 | 0.00 | 0.00 | 70 | 1013.8 |
| 20260505062027 | 41 | 106 | 5.0 | 12.0 | 0.00 | 0.00 | 0.00 | 69 | 1013.8 |
| 20260505061546 | 41 | 97 | 6.0 | 14.0 | 0.00 | 0.00 | 0.00 | 68 | 1013.8 |
| 20260505061113 | 42 | 127 | 8.0 | 15.0 | 0.00 | 0.00 | 0.00 | 67 | 1013.8 |
| 20260505060528 | 42 | 90 | 9.0 | 15.0 | 0.00 | 0.00 | 0.00 | 66 | 1013.8 |
| 20260505060043 | 42 | 90 | 8.0 | 14.0 | 0.00 | 0.00 | 0.00 | 65 | 1013.7 |
| 20260505055528 | 42 | 94 | 4.0 | 10.0 | 0.00 | 0.00 | 0.00 | 66 | 1013.5 |
| 20260505055028 | 43 | 89 | 3.0 | 10.0 | 0.00 | 0.00 | 0.00 | 65 | 1013.5 |
| 20260505054547 | 43 | 94 | 5.0 | 12.0 | 0.00 | 0.00 | 0.00 | 63 | 1013.4 |
| 20260505054027 | 43 | 94 | 7.0 | 12.0 | 0.00 | 0.00 | 0.00 | 63 | 1013.3 |
| 20260505053528 | 43 | 103 | 5.0 | 11.0 | 0.00 | 0.00 | 0.00 | 63 | 1013.3 |
| 20260505053044 | 43 | 111 | 6.0 | 11.0 | 0.00 | 0.00 | 0.00 | 63 | 1013.3 |
| 20260505052530 | 44 | 113 | 5.0 | 13.0 | 0.00 | 0.00 | 0.00 | 62 | 1013.1 |
| 20260505052030 | 44 | 113 | 6.0 | 14.0 | 0.00 | 0.00 | 0.00 | 62 | 1013.0 |
| 20260505051541 | 44 | 88 | 9.0 | 15.0 | 0.00 | 0.00 | 0.00 | 62 | 1013.0 |
| 20260505051027 | 44 | 78 | 9.0 | 15.0 | 0.00 | 0.00 | 0.00 | 62 | 1013.0 |
| 20260505050527 | 44 | 92 | 5.0 | 10.0 | 0.00 | 0.00 | 0.00 | 62 | 1012.7 |
| 20260505041538 | 43 | 94 | 2.0 | 4.0 | 0.00 | 0.00 | 0.00 | 65 | 1012.5 |
| 20260505041028 | 44 | 94 | 2.0 | 4.0 | 0.00 | 0.00 | 0.00 | 64 | 1012.5 |
| 20260505040528 | 44 | 94 | 1.0 | 4.0 | 0.00 | 0.00 | 0.00 | 63 | 1012.5 |
| 20260505040042 | 44 | 93 | 2.0 | 5.0 | 0.00 | 0.00 | 0.00 | 63 | 1012.4 |
| 20260505035527 | 44 | 97 | 2.0 | 8.0 | 0.00 | 0.00 | 0.00 | 62 | 1012.3 |
| 20260505035028 | 44 | 84 | 2.0 | 8.0 | 0.00 | 0.00 | 0.00 | 62 | 1012.3 |
| 20260505034548 | 44 | 94 | 4.0 | 8.0 | 0.00 | 0.00 | 0.00 | 62 | 1012.2 |
| 20260505034025 | 44 | 109 | 3.0 | 8.0 | 0.00 | 0.00 | 0.00 | 62 | 1012.1 |
| 20260505033528 | 44 | 90 | 4.0 | 8.0 | 0.00 | 0.00 | 0.00 | 62 | 1012.1 |
| 20260505033043 | 43 | 92 | 2.0 | 8.0 | 0.00 | 0.00 | 0.00 | 63 | 1012.1 |
| 20260505032527 | 43 | 83 | 3.0 | 8.0 | 0.00 | 0.00 | 0.00 | 63 | 1012.0 |
| 20260505032028 | 43 | 85 | 3.0 | 8.0 | 0.00 | 0.00 | 0.00 | 63 | 1012.0 |
| 20260505031544 | 42 | 79 | 2.0 | 4.0 | 0.00 | 0.00 | 0.00 | 64 | 1012.0 |
| 20260505031029 | 42 | 78 | 2.0 | 4.0 | 0.00 | 0.00 | 0.00 | 65 | 1012.0 |
| 20260505030528 | 42 | 77 | 2.0 | 4.0 | 0.00 | 0.00 | 0.00 | 64 | 1012.0 |
| 20260505030041 | 42 | 77 | 2.0 | 4.0 | 0.00 | 0.00 | 0.00 | 64 | 1011.9 |
| 20260505025526 | 42 | 77 | 1.0 | 3.0 | 0.00 | 0.00 | 0.00 | 64 | 1011.8 |
| 20260505025027 | 42 | 77 | 1.0 | 3.0 | 0.00 | 0.00 | 0.00 | 64 | 1011.8 |
| 20260505024538 | 42 | 77 | 1.0 | 3.0 | 0.00 | 0.00 | 0.00 | 64 | 1011.8 |
| 20260505024027 | 43 | 77 | 1.0 | 3.0 | 0.00 | 0.00 | 0.00 | 62 | 1011.7 |
| 20260505023528 | 43 | 77 | 1.0 | 3.0 | 0.00 | 0.00 | 0.00 | 62 | 1011.7 |
| 20260505023038 | 43 | 77 | 1.0 | 3.0 | 0.00 | 0.00 | 0.00 | 62 | 1011.6 |
| 20260505022528 | 43 | 77 | 1.0 | 4.0 | 0.00 | 0.00 | 0.00 | 62 | 1011.7 |
| 20260505022027 | 43 | 0 | 0.0 | 4.0 | 0.00 | 0.00 | 0.00 | 61 | 1011.6 |
| 20260505021545 | 43 | 98 | 1.0 | 4.0 | 0.00 | 0.00 | 0.00 | 61 | 1011.5 |
| 20260505021028 | 44 | 98 | 2.0 | 7.0 | 0.00 | 0.00 | 0.00 | 60 | 1011.6 |
| 20260505020529 | 44 | 92 | 2.0 | 7.0 | 0.00 | 0.00 | 0.00 | 59 | 1011.5 |
| 20260505020046 | 45 | 97 | 3.0 | 8.0 | 0.00 | 0.00 | 0.00 | 58 | 1011.4 |
| 20260505015529 | 45 | 96 | 3.0 | 8.0 | 0.00 | 0.00 | 0.00 | 57 | 1011.4 |
| 20260505015028 | 46 | 87 | 3.0 | 9.0 | 0.00 | 0.00 | 0.00 | 56 | 1011.4 |
| 20260505014540 | 46 | 94 | 4.0 | 9.0 | 0.00 | 0.00 | 0.00 | 56 | 1011.4 |
| 20260505014027 | 46 | 97 | 4.0 | 9.0 | 0.00 | 0.00 | 0.00 | 56 | 1011.4 |
| 20260505013527 | 46 | 98 | 4.0 | 9.0 | 0.00 | 0.00 | 0.00 | 56 | 1011.5 |
| 20260505013038 | 46 | 61 | 3.0 | 11.0 | 0.00 | 0.00 | 0.00 | 55 | 1011.4 |
| 20260505012528 | 47 | 105 | 3.0 | 11.0 | 0.00 | 0.00 | 0.00 | 56 | 1011.4 |
| 20260505012028 | 47 | 84 | 6.0 | 11.0 | 0.00 | 0.00 | 0.00 | 55 | 1011.5 |
| 20260505011541 | 47 | 93 | 5.0 | 10.0 | 0.00 | 0.00 | 0.00 | 55 | 1011.5 |
| 20260505011027 | 47 | 103 | 4.0 | 13.0 | 0.00 | 0.00 | 0.00 | 54 | 1011.6 |
| 20260505010528 | 48 | 88 | 6.0 | 14.0 | 0.00 | 0.00 | 0.00 | 53 | 1011.5 |
| 20260505005525 | 49 | 96 | 9.0 | 15.0 | 0.00 | 0.00 | 0.00 | 52 | 1011.5 |
| 20260505005026 | 49 | 66 | 7.0 | 14.0 | 0.00 | 0.00 | 0.00 | 52 | 1011.5 |
| 20260505004541 | 50 | 83 | 6.0 | 13.0 | 0.00 | 0.00 | 0.00 | 52 | 1011.5 |
| 20260505004026 | 50 | 105 | 5.0 | 15.0 | 0.00 | 0.00 | 0.00 | 53 | 1011.5 |
| 20260505003527 | 50 | 92 | 6.0 | 17.0 | 0.00 | 0.00 | 0.00 | 52 | 1011.5 |
| 20260505003043 | 50 | 82 | 8.0 | 18.0 | 0.00 | 0.00 | 0.00 | 53 | 1011.4 |
| 20260505002528 | 49 | 53 | 9.0 | 18.0 | 0.00 | 0.00 | 0.00 | 52 | 1011.4 |
| 20260505002028 | 49 | 83 | 10.0 | 18.0 | 0.00 | 0.00 | 0.00 | 53 | 1011.5 |
| 20260505001539 | 49 | 129 | 8.0 | 15.0 | 0.00 | 0.00 | 0.00 | 54 | 1011.4 |
| 20260505001028 | 49 | 134 | 7.0 | 15.0 | 0.00 | 0.00 | 0.00 | 54 | 1011.5 |
| 20260505000527 | 49 | 83 | 8.0 | 17.0 | 0.00 | 0.00 | 0.00 | 54 | 1011.5 |
| 20260505000044 | 49 | 95 | 9.0 | 17.0 | 0.00 | 0.00 | 0.00 | 53 | 1011.5 |
| 20260504235526 | 49 | 47 | 9.0 | 15.0 | 0.00 | 0.00 | 0.00 | 53 | 1011.4 |
| 20260504235028 | 49 | 76 | 8.0 | 15.0 | 0.00 | 0.00 | 0.00 | 54 | 1011.4 |
| 20260504234537 | 50 | 107 | 8.0 | 19.0 | 0.00 | 0.00 | 0.00 | 53 | 1011.3 |
| 20260504234028 | 51 | 92 | 9.0 | 19.0 | 0.00 | 0.00 | 0.00 | 52 | 1011.4 |
| 20260504233528 | 51 | 86 | 11.0 | 18.0 | 0.00 | 0.00 | 0.00 | 53 | 1011.3 |
| 20260504233043 | 51 | 98 | 8.0 | 18.0 | 0.00 | 0.00 | 0.00 | 54 | 1011.3 |
| 20260504232527 | 50 | 97 | 9.0 | 19.0 | 0.00 | 0.00 | 0.00 | 54 | 1011.2 |
| 20260504232027 | 51 | 87 | 8.0 | 19.0 | 0.00 | 0.00 | 0.00 | 52 | 1011.1 |
| 20260504231545 | 51 | 47 | 10.0 | 18.0 | 0.00 | 0.00 | 0.00 | 55 | 1011.1 |
| 20260504231027 | 50 | 74 | 10.0 | 18.0 | 0.00 | 0.00 | 0.00 | 52 | 1011.0 |
| 20260504230528 | 50 | 104 | 9.0 | 18.0 | 0.00 | 0.00 | 0.00 | 53 | 1011.2 |
| 20260504230045 | 50 | 58 | 9.0 | 24.0 | 0.00 | 0.00 | 0.00 | 53 | 1011.2 |
| 20260504225528 | 50 | 133 | 11.0 | 24.0 | 0.00 | 0.00 | 0.00 | 53 | 1011.2 |
| 20260504225028 | 50 | 86 | 8.0 | 19.0 | 0.00 | 0.00 | 0.00 | 54 | 1011.1 |
| 20260504224538 | 50 | 69 | 11.0 | 19.0 | 0.00 | 0.00 | 0.00 | 55 | 1011.1 |
| 20260504224027 | 50 | 105 | 10.0 | 18.0 | 0.00 | 0.00 | 0.00 | 55 | 1011.1 |
| 20260504223527 | 50 | 86 | 9.0 | 19.0 | 0.00 | 0.00 | 0.00 | 55 | 1011.2 |
| 20260504223038 | 50 | 111 | 9.0 | 19.0 | 0.00 | 0.00 | 0.00 | 56 | 1011.1 |
| 20260504222523 | 50 | 78 | 10.0 | 19.0 | 0.00 | 0.00 | 0.00 | 55 | 1011.2 |
| 20260504222027 | 50 | 65 | 10.0 | 17.0 | 0.00 | 0.00 | 0.00 | 56 | 1011.2 |
| 20260504221556 | 50 | 117 | 8.0 | 17.0 | 0.00 | 0.00 | 0.00 | 55 | 1011.3 |
| 20260504221025 | 50 | 88 | 10.0 | 17.0 | 0.00 | 0.00 | 0.00 | 55 | 1011.3 |
| 20260504220528 | 51 | 118 | 8.0 | 19.0 | 0.00 | 0.00 | 0.00 | 52 | 1011.3 |
| 20260504220044 | 51 | 102 | 12.0 | 19.0 | 0.00 | 0.00 | 0.00 | 52 | 1011.4 |
| 20260504215527 | 52 | 55 | 9.0 | 18.0 | 0.00 | 0.00 | 0.00 | 51 | 1011.4 |
| 20260504215027 | 51 | 96 | 9.0 | 18.0 | 0.00 | 0.00 | 0.00 | 52 | 1011.3 |
| 20260504214539 | 52 | 97 | 9.0 | 18.0 | 0.00 | 0.00 | 0.00 | 52 | 1011.4 |
| 20260504214027 | 52 | 46 | 9.0 | 18.0 | 0.00 | 0.00 | 0.00 | 56 | 1011.3 |
| 20260504213527 | 51 | 12 | 7.0 | 14.0 | 0.00 | 0.00 | 0.00 | 55 | 1011.4 |
| 20260504213052 | 50 | 47 | 7.0 | 16.0 | 0.00 | 0.00 | 0.00 | 58 | 1011.6 |
| 20260504212527 | 49 | 64 | 9.0 | 16.0 | 0.00 | 0.00 | 0.00 | 58 | 1011.7 |
| 20260504212025 | 48 | 80 | 4.0 | 15.0 | 0.00 | 0.00 | 0.00 | 62 | 1011.7 |
| 20260504211541 | 48 | 53 | 8.0 | 18.0 | 0.00 | 0.00 | 0.00 | 59 | 1012.0 |
| 20260504211028 | 49 | 104 | 11.0 | 18.0 | 0.00 | 0.00 | 0.00 | 59 | 1012.2 |
| 20260504210528 | 49 | 86 | 10.0 | 19.0 | 0.00 | 0.00 | 0.00 | 56 | 1012.1 |
| 20260504210045 | 49 | 94 | 11.0 | 21.0 | 0.00 | 0.00 | 0.00 | 54 | 1012.3 |
| 20260504205527 | 50 | 96 | 11.0 | 21.0 | 0.00 | 0.00 | 0.00 | 54 | 1012.3 |
| 20260504205026 | 50 | 51 | 9.0 | 19.0 | 0.00 | 0.00 | 0.00 | 53 | 1012.2 |
| 20260504204540 | 49 | 57 | 12.0 | 19.0 | 0.00 | 0.00 | 0.00 | 53 | 1012.2 |
| 20260504204028 | 49 | 58 | 12.0 | 18.0 | 0.00 | 0.00 | 0.00 | 52 | 1012.3 |
| 20260504203529 | 49 | 101 | 8.0 | 17.0 | 0.00 | 0.00 | 0.00 | 53 | 1012.3 |
| 20260504203048 | 50 | 71 | 9.0 | 19.0 | 0.00 | 0.00 | 0.00 | 54 | 1012.2 |
| 20260504202528 | 49 | 86 | 11.0 | 21.0 | 0.00 | 0.00 | 0.00 | 54 | 1012.2 |
| 20260504202027 | 49 | 76 | 7.0 | 21.0 | 0.00 | 0.00 | 0.00 | 55 | 1012.3 |
| 20260504201540 | 49 | 69 | 10.0 | 21.0 | 0.00 | 0.00 | 0.00 | 53 | 1012.2 |
| 20260504201027 | 49 | 93 | 10.0 | 19.0 | 0.00 | 0.00 | 0.00 | 56 | 1012.2 |
| 20260504200527 | 49 | 45 | 9.0 | 19.0 | 0.00 | 0.00 | 0.00 | 55 | 1012.3 |
| 20260504200039 | 50 | 105 | 11.0 | 20.0 | 0.00 | 0.00 | 0.00 | 53 | 1012.3 |
| 20260504195527 | 50 | 109 | 9.0 | 20.0 | 0.00 | 0.00 | 0.00 | 55 | 1012.1 |
| 20260504195027 | 50 | 49 | 9.0 | 19.0 | 0.00 | 0.00 | 0.00 | 57 | 1012.2 |
| 20260504194549 | 50 | 118 | 12.0 | 19.0 | 0.00 | 0.00 | 0.00 | 55 | 1012.1 |
| 20260504194025 | 51 | 113 | 10.0 | 19.0 | 0.00 | 0.00 | 0.00 | 56 | 1012.1 |
| 20260504193529 | 51 | 110 | 12.0 | 19.0 | 0.00 | 0.00 | 0.00 | 54 | 1012.1 |
| 20260504193041 | 51 | 56 | 12.0 | 22.0 | 0.00 | 0.00 | 0.00 | 55 | 1012.1 |
| 20260504192527 | 51 | 80 | 14.0 | 25.0 | 0.00 | 0.00 | 0.00 | 56 | 1012.1 |
| 20260504192028 | 50 | 89 | 12.0 | 25.0 | 0.00 | 0.00 | 0.00 | 56 | 1012.0 |
| 20260504191541 | 51 | 57 | 11.0 | 22.0 | 0.00 | 0.00 | 0.00 | 57 | 1011.9 |
| 20260504191028 | 51 | 65 | 12.0 | 22.0 | 0.00 | 0.00 | 0.00 | 57 | 1012.1 |
| 20260504190525 | 51 | 121 | 12.0 | 24.0 | 0.00 | 0.00 | 0.00 | 57 | 1012.0 |
| 20260504190038 | 51 | 118 | 12.0 | 24.0 | 0.00 | 0.00 | 0.00 | 55 | 1012.0 |
| 20260504185527 | 51 | 71 | 11.0 | 20.0 | 0.00 | 0.00 | 0.00 | 54 | 1011.9 |
| 20260504185030 | 51 | 114 | 13.0 | 22.0 | 0.00 | 0.00 | 0.00 | 56 | 1012.1 |
| 20260504184538 | 52 | 49 | 10.0 | 22.0 | 0.00 | 0.00 | 0.00 | 56 | 1012.0 |
| 20260504184030 | 51 | 67 | 12.0 | 22.0 | 0.00 | 0.00 | 0.00 | 59 | 1012.1 |
| 20260504183527 | 51 | 80 | 9.0 | 19.0 | 0.00 | 0.00 | 0.00 | 58 | 1012.2 |
| 20260504183039 | 50 | 85 | 11.0 | 19.0 | 0.00 | 0.00 | 0.00 | 61 | 1012.3 |
| 20260504182526 | 50 | 96 | 9.0 | 21.0 | 0.00 | 0.00 | 0.00 | 60 | 1012.3 |
| 20260504182025 | 49 | 97 | 11.0 | 21.0 | 0.00 | 0.00 | 0.00 | 62 | 1012.4 |
| 20260504181546 | 48 | 71 | 13.0 | 20.0 | 0.00 | 0.00 | 0.00 | 60 | 1012.6 |
| 20260504181029 | 48 | 83 | 12.0 | 20.0 | 0.00 | 0.00 | 0.00 | 60 | 1012.5 |
| 20260504180527 | 48 | 46 | 12.0 | 17.0 | 0.00 | 0.00 | 0.00 | 62 | 1012.6 |
| 20260504180048 | 48 | 50 | 8.0 | 16.0 | 0.00 | 0.00 | 0.00 | 62 | 1012.6 |
| 20260504175526 | 48 | 49 | 10.0 | 16.0 | 0.00 | 0.00 | 0.00 | 61 | 1012.6 |
| 20260504175025 | 48 | 62 | 7.0 | 16.0 | 0.00 | 0.00 | 0.00 | 65 | 1012.7 |
| 20260504174544 | 48 | 118 | 10.0 | 17.0 | 0.00 | 0.00 | 0.00 | 62 | 1012.8 |
| 20260504174025 | 47 | 88 | 12.0 | 17.0 | 0.00 | 0.00 | 0.00 | 62 | 1012.8 |
| 20260504173525 | 48 | 134 | 8.0 | 21.0 | 0.00 | 0.00 | 0.00 | 62 | 1012.8 |
| 20260504173039 | 47 | 86 | 6.0 | 21.0 | 0.00 | 0.00 | 0.00 | 62 | 1012.9 |
| 20260504172527 | 47 | 90 | 10.0 | 21.0 | 0.00 | 0.00 | 0.00 | 61 | 1012.9 |
| 20260504172026 | 47 | 107 | 13.0 | 19.0 | 0.00 | 0.00 | 0.00 | 61 | 1012.9 |
| 20260504171538 | 47 | 127 | 9.0 | 18.0 | 0.00 | 0.00 | 0.00 | 61 | 1013.0 |
| 20260504171026 | 47 | 52 | 9.0 | 18.0 | 0.00 | 0.00 | 0.00 | 63 | 1013.2 |
| 20260504170526 | 47 | 73 | 10.0 | 19.0 | 0.00 | 0.00 | 0.00 | 62 | 1013.0 |